STARLINK-32460, 61914

Orbit data source: Space-Track

STARLINK-32460, 61914 is a payload satellite owned by SpaceX/Seattle (US) in LEO that was launched on Mon, 11 Nov 2024 UTC via an FALCON 9 launch vehicle from the Air Force Eastern Test Range (AFETR). Payload-class satellites include a variety of spacecraft equipped with specific instruments for various scientific and technological missions. These include communications satellites like Starlink; space stations such as the ISS; scientific satellites like the Hubble; Earth observation satellites from companies like Planet Labs, Umbra, and HawkEye 360; GPS; miniature CubeSats for education and research; and military/defense satellites.

Loading next visibility...
Identifier
61914, 2024-207C
Orbit
LEO
Country
Flag of USUS
Related business
Manufacturer
SpaceX/Seattle
Mission
Operational Commercial Communications
Bus & Motor
STARLINK V2M, Unknown motor
Mass
730 kg wet, ~700 kg dry
Launch date (UTC)
2024-11-11 (2 years ago)
Launch vehicle
FALCON 9
Launch site
Air Force Eastern Test Range (AFETR)
Object type
Payload
Rocket body
Debris
Shape & HBR
Box + 2 Pan, 17.7 m
Radar Cross Section
33.884 m², Large (>1 m²)

Expand to show TLE details & history
Last TLE update: 22 hours ago

TLE from 22 hours ago
0 STARLINK-32460
1 61914U 24207C   26262.73498465  .00013867  00000-0  51238-3 0  9997
2 61914  43.0043 265.4640 0001807 277.3351  82.7295 15.27586971104401
Epoch: 2026-09-19T17:38Z
TLE epoch observation values (Epoch: 2026-09-19T17:38:22.673Z)
Latitude
-0.00005°
Longitude
2.23022°
Altitude
482.647 km
Speed
7.626 km/s
True Right ascension
17h 41m 51s
True Declination
0° 00' 00"
Sunlit
Object was in daylight at epoch
Visualization orbit readout
Latitude
Unknown
Longitude
Unknown
Altitude
Unknown
Speed
Unknown
Apparent Right ascension
Unknown
Apparent Declination
Unknown
Sunlit
N/A
Visualization observer readout
Local Sidereal Time
08:30:26
Azimuth
Unknown
Elevation
Unknown
Doppler factor
Unknown
Orbital elements
Apogee altitude
486.213 km
Perigee altitude
483.733 km
Semi-major axis
6,863.11 km
Eccentricity
0.00018
Inclination
43.0043°
RAAN
265.464°
Arg. of periapsis
277.3351°
True anomaly
82.75004°
Mean anomaly
82.7295°
Eccentric anomaly
82.73977°
Mean motion
3.81735 °/min
Orbital period
94.31 mins
BSTAR
0.00051238
Loading maneuver chart data...
Computing Atmospheric mass density...
Loading historical data...
Loading historical data...
Loading historical data...
Loading historical data...
Loading historical data...
Loading historical data...
Loading historical data...

Documentation

Showing up to 5 results
|